User: anonymous   Login
Location: Columbia
(38.9520°N, 92.3340°W)
Time: 14:51:57
(UTC-05:00)
Language:

SJ-11-01 - Orbit

View from above orbital plane
View from above orbital plane
View from above satellite
View from above satellite

Ground track
Ground track

The orbit data is extracted from the following two-line orbital elements,

1 36088U 09061A   17292.30654460  .00000090  00000-0  28303-4 0  9999
2 36088  98.1230 337.7071 0010179 236.1658 123.8576 14.59975094422752
Epoch (UTC): 19 October 2017 07:21:25
Eccentricity: 0.0010179
inclination: 98.1230°
perigee height: 686 km
apogee height: 700 km
right ascension of ascending node: 337.7071°
argument of perigee: 236.1658°
revolutions per day: 14.59975094
mean anomaly at epoch: 123.8576°
orbit number at epoch: 42275

The dashed part of the orbit path shows where the satellite is in the earth's shadow,  

DLR